Content
SEND FEEDBACK

Daily
Averages
Monthly
Summary
United States of America

PYGA BEACH, GUAM


Home > North America > United States > Guam
Elevation: 6 meters     Latitude: 13 17N     Longitude: 144 39E

WEATHER
 
SELECT A DAY
Number of Records: 357,231;   Date Range: 1/1/95 - 12/25/14
 
SHARE

PRINT THIS DATA

[ ← Previous Day ]
WEATHER ALMANAC - 7 AUGUST, 2014
[ Next Day → ]
[ °F ]   °C
Weather ElementAverageHighLow
Temperature27.7 °C29.6 °C (12:58 pm)25 °C (9:25 am)
Dewpoint24.7 °C25.3 °C (12:58 pm)23.8 °C (4:58 am)
Humidity83.8 %94 % (5:23 am)75 % (10:58 am)
Barometer1008.5 hPa1010.2 hPa (4:58 am)1006.8 hPa (3:58 pm)
Wind Speed12.6 km/h20.4 km/h (1:28 am)
Weather ElementAverage
Visibility16.1 km
Wind DirectionESE (122.3 °)

Weather ElementTotal
Precipitation---
Cooling Degree Days9 (Base 18.3)
Growing Degree Days17.3 (Base 10)
Averaged from 57 records on 7 August, 2014
WEATHER CONDITIONS BREAKOUT
WIND DIRECTION BREAKOUT
WEATHER BY HOUR - 7 AUGUST, 2014
[ °F ]   °C
Local TimeTemperatureDewpointHumidityBarometerVisibilityWind DirectionWind SpeedGust SpeedPrecipitationEventsConditions
12:38 AM26 °C25 °C94 %1009.8 hPa16.1 kmNNE (30°)11.1 km/hMostly Cloudy
12:52 AM26 °C25 °C94 %1009.5 hPa16.1 kmNE (40°)9.3 km/hRainLight Rain
12:58 AM26.4 °C24.8 °C91 %1008.5 hPa16.1 kmNNE (20°)11.1 km/h0 mmLight Drizzle
1:02 AM26 °C25 °C94 %1009.5 hPa16.1 kmNorth (10°)13 km/hOvercast
1:27 AM26 °C25 °C94 %1009.1 hPa16.1 kmNNE (20°)11.1 km/hMostly Cloudy
1:57 AM26 °C24 °C89 %1008.8 hPa16.1 kmNorth (360°)13 km/hMostly Cloudy
1:58 AM26.3 °C24.8 °C91 %1007.8 hPa16.1 kmNorth (360°)13 km/h0 mmMostly Cloudy
2:03 AM26 °C24 °C89 %1008.8 hPa16.1 kmNorth (10°)11.1 km/hScattered Clouds
2:58 AM25.9 °C24.2 °C90 %1007.5 hPa16.1 kmNorth (350°)7.4 km/hClear
3:58 AM25.2 °C23.9 °C92 %1007.1 hPa16.1 kmNorth (10°)9.3 km/hPartly Cloudy
4:58 AM25 °C23.8 °C93 %1007.5 hPa16.1 kmEast (90°)7.4 km/hClear
5:58 AM25.1 °C24.1 °C94 %1007.8 hPa16.1 kmEast (80°)1.9 km/hPartly Cloudy
6:58 AM25.4 °C24.2 °C93 %1008.1 hPa16.1 kmESE (110°)3.7 km/hClear
7:58 AM27.2 °C25 °C88 %1008.8 hPa16.1 kmEast (100°)9.3 km/hPartly Cloudy
8:23 AM27 °C25 °C89 %1010.2 hPa16.1 kmESE (110°)9.3 km/hMostly Cloudy
8:53 AM28 °C25 °C84 %1010.2 hPa16.1 kmESE (110°)13 km/hMostly Cloudy
8:58 AM28.3 °C24.9 °C82 %1009.5 hPa16.1 kmESE (110°)11.1 km/hScattered Clouds
9:58 AM28.7 °C24.5 °C78 %1009.5 hPa16.1 kmVariable7.4 km/hPartly Cloudy
10:43 AM29 °C25 °C79 %1010.2 hPa16.1 kmESE (110°)13 km/hMostly Cloudy
10:48 AM29 °C25 °C79 %1010.2 hPa16.1 kmESE (110°)11.1 km/hScattered Clouds
10:58 AM29.3 °C24.5 °C75 %1008.8 hPa16.1 kmESE (120°)13 km/hScattered Clouds
11:13 AM29 °C25 °C79 %1009.8 hPa16.1 kmEast (90°)13 km/hMostly Cloudy
11:18 AM29 °C25 °C79 %1009.8 hPa16.1 kmESE (110°)14.8 km/hScattered Clouds
11:33 AM29 °C25 °C79 %1009.5 hPa16.1 kmEast (100°)16.7 km/hMostly Cloudy
11:38 AM29 °C25 °C79 %1009.5 hPa16.1 kmESE (110°)13 km/hScattered Clouds
11:58 AM29.3 °C24.9 °C77 %1008.5 hPa16.1 kmSE (140°)14.8 km/hScattered Clouds
12:58 PM29.6 °C25.3 °C78 %1007.5 hPa16.1 kmESE (110°)16.7 km/hMostly Cloudy
1:08 PM29 °C25 °C79 %1008.5 hPa16.1 kmESE (120°)16.7 km/hMostly Cloudy
1:13 PM29 °C25 °C79 %1008.5 hPa16.1 kmESE (110°)14.8 km/hMostly Cloudy
1:33 PM29 °C25 °C79 %1008.5 hPa16.1 kmESE (110°)11.1 km/hMostly Cloudy
1:53 PM29 °C25 °C79 %1008.5 hPa16.1 kmSE (130°)16.7 km/hMostly Cloudy
1:58 PM28.6 °C25.2 °C82 %1007.5 hPa16.1 kmSE (130°)14.8 km/hMostly Cloudy
2:03 PM28 °C25 °C84 %1008.5 hPa16.1 kmESE (110°)14.8 km/hMostly Cloudy
2:08 PM29 °C25 °C79 %1008.5 hPa16.1 kmSE (130°)18.5 km/hMostly Cloudy
2:23 PM29 °C25 °C79 %1008.5 hPa16.1 kmSE (140°)14.8 km/hMostly Cloudy
2:28 PM29 °C25 °C79 %1008.1 hPa16.1 kmESE (120°)16.7 km/hMostly Cloudy
2:38 PM29 °C25 °C79 %1008.1 hPa16.1 kmSE (140°)16.7 km/hMostly Cloudy
2:43 PM29 °C25 °C79 %1008.1 hPa16.1 kmESE (120°)16.7 km/hScattered Clouds
2:58 PM29.6 °C24.8 °C75 %1007.1 hPa16.1 kmESE (120°)14.8 km/hPartly Cloudy
3:58 PM28.8 °C24.4 °C77 %1006.8 hPa16.1 kmSE (140°)18.5 km/hScattered Clouds
4:23 PM29 °C25 °C79 %1007.8 hPa16.1 kmSE (140°)16.7 km/hMostly Cloudy
4:58 PM29 °C25 °C79 %1006.8 hPa16.1 kmSE (140°)11.1 km/hScattered Clouds
5:03 PM29 °C25 °C79 %1007.8 hPa16.1 kmSE (140°)14.8 km/hMostly Cloudy
5:28 PM29 °C25 °C79 %1007.8 hPa16.1 kmSSE (150°)14.8 km/hScattered Clouds
5:58 PM28.3 °C24.4 °C79 %1007.1 hPa16.1 kmSSE (150°)20.4 km/hPartly Cloudy
6:58 PM27.4 °C24.3 °C83 %1007.5 hPa16.1 kmSSE (150°)13 km/hPartly Cloudy
7:13 PM27 °C24 °C84 %1008.8 hPa16.1 kmSSE (150°)11.1 km/hMostly Cloudy
7:33 PM27 °C24 °C84 %1008.8 hPa16.1 kmSSE (160°)11.1 km/hScattered Clouds
7:48 PM27 °C25 °C89 %1009.1 hPa16.1 kmSSE (160°)13 km/hMostly Cloudy
7:53 PM27 °C25 °C89 %1009.1 hPa16.1 kmSSE (150°)11.1 km/hScattered Clouds
7:58 PM27.2 °C24.5 °C85 %1008.1 hPa16.1 kmSSE (150°)14.8 km/hScattered Clouds
8:58 PM26.9 °C24.3 °C86 %1008.5 hPa16.1 kmSSE (160°)7.4 km/hPartly Cloudy
9:23 PM27 °C24 °C84 %1009.8 hPa16.1 kmSouth (170°)9.3 km/hMostly Cloudy
9:38 PM27 °C24 °C84 %1009.8 hPa16.1 kmVariable9.3 km/hMostly Cloudy
9:58 PM27 °C24.4 °C86 %1008.8 hPa16.1 kmSSE (150°)11.1 km/hPartly Cloudy
10:58 PM26.8 °C24.6 °C88 %1009.5 hPa16.1 kmSSE (150°)11.1 km/hPartly Cloudy
11:58 PM26.4 °C24.3 °C88 %1008.8 hPa16.1 kmSSE (160°)5.6 km/hClear
Hourly data recorded from PGUA, located 0 kilometers away from Pyga Beach, Guam







STORIES FROM OUR PARTNERS